[[{"header":{"parameterUnit":"m.s-1","parameterCategory":1,"la1":30.2991,"la2":30.254,"lo1":-89.0895,"lo2":-89.0444,"dy":0.0017,"dx":0.0017,"nx":28,"ny":28,"refTime":"2024-06-15T03:00:00:Z","depth":0,"parameterNumber":2,"parameterNumberName":"U-component_of_WINDS"},"data":[0,0,0,0,0,0,0,0,0,0,0,0,0,0,0,0,0,0,0,0,0,0,0,0,0,0,0,0,0,0,0,0,0,0,0,0,0,0,0,0,0,0,0,0,0,0,0,0,0,0,0,0,0,0,0,0,0,0,1.1991,1.1992,0,1.2024,1.2024,1.2025,1.2021,1.2021,1.202,1.202,1.205,1.2052,1.2053,0,0,0,0,0,0,0,0,0,0,0,0,0,1.1923,1.1924,1.1991,1.1992,1.1992,1.2024,1.2024,1.2025,1.2021,1.2021,1.202,1.2019,1.205,1.2052,1.2053,0,0,0,0,0,0,0,0,0,0,0,0,0,1.1954,1.1925,1.1991,1.1994,1.1995,1.2024,1.2024,1.2025,1.2021,1.2021,1.202,1.2019,1.2049,1.2051,1.2053,1.2081,0,0,1.2059,1.206,0,0,0,0,0,0,0,0,1.1952,1.1956,1.1993,1.1994,1.1995,1.2018,1.2012,1.2044,1.2022,1.2011,1.202,1.2019,1.204,1.2043,1.205,1.2082,1.2083,1.2059,1.2061,1.2061,1.2062,0,0,0,0,0,0,0,1.195,1.1955,1.2004,1.1994,1.1995,1.1993,1.1996,1.2018,1.2029,1.2012,1.2012,1.2016,1.204,1.2049,1.2051,1.2084,1.2059,1.2061,1.2062,1.2063,1.2138,1.2139,0,0,0,0,0,0,1.1947,1.1953,1.2003,1.2005,1.1971,1.1995,1.1999,1.2011,1.2029,1.2031,1.2017,1.2016,1.2046,1.2049,1.2052,1.2085,1.2061,1.2063,1.2064,1.2138,1.2139,1.2139,0,0,0,0,0,0,1.1946,1.1952,1.2002,1.1979,1.1985,1.1997,1.2011,1.2012,1.202,1.2033,1.2034,1.2023,1.2045,1.2049,1.2074,1.2086,1.2064,1.2066,1.2137,1.2138,1.2139,1.215,0,0,0,0,0,0,1.1944,1.1951,1.1963,1.1979,1.1987,1.2024,1.2011,1.2013,1.2024,1.2023,1.2039,1.2041,1.2045,1.2071,1.2075,1.2088,1.2067,1.2136,1.2137,1.2139,1.2149,1.2151,1.2154,0,0,0,0,0,1.1941,1.1964,1.1963,1.1969,1.2001,1.2024,1.2028,1.2033,1.2025,1.2036,1.2044,1.2041,1.2084,1.2073,1.2079,1.2092,1.2135,1.2137,1.2139,1.2147,1.2151,1.2154,0,0,0,0,0,0,1.1947,1.1966,1.1966,1.1994,1.2008,1.2024,1.2037,1.2037,1.2052,1.205,1.2055,1.2058,1.2082,1.2089,1.2077,1.2119,1.2108,1.2111,1.2113,1.2116,1.2119,1.2116,1.2069,0,0,0,0,0,1.1952,1.1971,1.1986,1.201,1.2016,1.2026,1.2036,1.2039,1.2052,1.2058,1.2067,1.208,1.2096,1.2107,1.2123,1.215,1.2153,1.2161,1.2164,1.2166,1.2169,1.2182,1.2186,1.2146,1.2146,1.2146,0,0,1.1962,1.1975,1.1986,1.2011,1.2022,1.204,1.2031,1.205,1.2063,1.206,1.2084,1.2091,1.2105,1.2131,1.2143,1.2138,1.218,1.2169,1.217,1.2171,1.2185,1.2189,1.2192,1.2147,1.2147,1.2147,0,0,1.1989,1.2001,1.2022,1.2033,1.2049,1.2055,1.206,1.2076,1.2081,1.2105,1.2103,1.2118,1.2147,1.2157,1.2165,1.2196,1.2193,1.2201,1.2214,1.2228,1.2231,1.2234,1.2244,1.2247,1.2203,1.2203,1.2203,0,1.1999,1.2027,1.2032,1.2052,1.2062,1.2062,1.2082,1.2092,1.2113,1.212,1.2114,1.2149,1.2159,1.2186,1.2194,1.2201,1.2206,1.2199,1.223,1.2233,1.2236,1.2245,1.2249,1.2204,1.2204,1.2204,1.2204,0,1.2037,1.2056,1.2071,1.2092,1.2104,1.2124,1.2132,1.2143,1.2144,1.2151,1.2174,1.2186,1.2204,1.221,1.2212,1.2238,1.2234,1.2229,1.2219,1.224,1.2249,1.2253,1.2205,1.2205,1.2205,1.2204,0,0,1.2068,1.2092,1.2097,1.2106,1.2124,1.2139,1.2158,1.2176,1.2186,1.22,1.2215,1.2239,1.2235,1.2245,1.2247,1.2259,1.2281,1.2253,1.2253,1.2257,1.2309,1.2312,1.2316,1.228,1.228,1.2281,1.2308,0,1.2096,1.2132,1.2137,1.2168,1.2185,1.2184,1.2201,1.2213,1.222,1.2234,1.2241,1.2257,1.2251,1.2257,1.2269,1.2276,1.2291,1.2274,1.2293,1.2294,1.2289,1.2321,1.2324,1.2349,1.2311,1.2312,1.2312,0,1.2134,1.2149,1.2182,1.2197,1.2204,1.2219,1.2236,1.2251,1.2264,1.2268,1.2279,1.228,1.2298,1.2288,1.2313,1.2301,1.2309,1.2314,1.2315,1.2316,1.2304,1.2322,1.2357,1.236,1.2318,1.2317,1.2317,0,1.2152,1.2181,1.2204,1.2212,1.2231,1.2241,1.2249,1.2262,1.2272,1.2287,1.2293,1.2309,1.2318,1.2329,1.2334,1.2326,1.2359,1.2349,1.2361,1.2361,1.2368,1.2367,1.2403,1.2374,1.2374,1.2374,1.2374,0,1.2182,1.2201,1.2212,1.2226,1.2248,1.2254,1.2275,1.2282,1.2294,1.2308,1.2309,1.2322,1.2328,1.2342,1.2346,1.2366,1.237,1.2373,1.2373,1.2372,1.2372,1.2377,1.2375,1.2375,1.2375,1.2375,1.2375,0,1.2205,1.2214,1.2239,1.2255,1.2259,1.2274,1.2287,1.23,1.2306,1.2325,1.2329,1.2339,1.2355,1.2362,1.2382,1.2384,1.2407,1.2406,1.2402,1.2402,1.2414,1.2413,1.2454,1.2459,1.2428,1.2428,1.2429,0,1.2224,1.2239,1.2256,1.2267,1.2275,1.2292,1.2302,1.2309,1.2319,1.2336,1.2346,1.2363,1.2377,1.2403,1.2411,1.2426,1.2426,1.2439,1.2428,1.2426,1.2425,1.2423,1.2424,1.2441,1.2441,1.2442,1.2442,0,1.2255,1.2258,1.2274,1.2291,1.2304,1.2318,1.2331,1.2339,1.2347,1.2358,1.2376,1.2387,1.2407,1.2423,1.2439,1.2446,1.2445,1.2445,1.2449,1.2447,1.2444,1.2445,1.2407,1.2444,1.2444,1.2444,1.2444,1.2444,1.2275,1.2289,1.2303,1.232,1.2331,1.2343,1.2356,1.2364,1.2379,1.2397,1.2399,1.2418,1.243,1.2451,1.2459,1.2472,1.2468,1.2474,1.2475,1.2476,1.2476,1.2443,1.2475,1.2475,1.2475,1.2475,1.2475,0,1.2306,1.2315,1.2331,1.235,1.2363,1.2362,1.2376,1.2387,1.2404,1.2416,1.2429,1.2449,1.2464,1.2474,1.2489,1.2498,1.2498,1.2502,1.2501,1.2502,1.2479,1.2474,1.2502,1.2502,1.2502,1.2502,1.2502,1.2502,1.2323,1.2345,1.235,1.2377,1.2385,1.2404,1.2412,1.2423,1.2433,1.2455,1.2468,1.2474,1.2485,1.2501,1.2515,1.2517,1.2522,1.2526,1.2528,1.2507,1.2504,1.2501,1.2496,1.2528,1.2528,1.2549,1.255,1.255]},{"header":{"parameterUnit":"m.s-1","parameterCategory":1,"la1":30.2991,"la2":30.254,"lo1":-89.0895,"lo2":-89.0444,"dy":0.0017,"dx":0.0017,"nx":28,"ny":28,"refTime":"2024-06-15T03:00:00:Z","depth":0,"parameterNumber":3,"parameterNumberName":"V-component_of_WINDS"},"data":[0,0,0,0,0,0,0,0,0,0,0,0,0,0,0,0,0,0,0,0,0,0,0,0,0,0,0,0,0,0,0,0,0,0,0,0,0,0,0,0,0,0,0,0,0,0,0,0,0,0,0,0,0,0,0,0,0,0,-0.5829,-0.5829,0,-0.5865,-0.5866,-0.5866,-0.5881,-0.5881,-0.5881,-0.5881,-0.5918,-0.5919,-0.592,0,0,0,0,0,0,0,0,0,0,0,0,0,-0.5773,-0.5774,-0.5829,-0.5829,-0.583,-0.5865,-0.5866,-0.5866,-0.5881,-0.5881,-0.5881,-0.5881,-0.5918,-0.5919,-0.592,0,0,0,0,0,0,0,0,0,0,0,0,0,-0.5802,-0.5774,-0.5829,-0.5842,-0.5843,-0.5865,-0.5866,-0.5866,-0.5881,-0.5881,-0.5881,-0.5881,-0.5917,-0.5919,-0.592,-0.5932,0,0,-0.5925,-0.5926,0,0,0,0,0,0,0,0,-0.58,-0.5804,-0.5839,-0.5841,-0.5842,-0.5869,-0.586,-0.5889,-0.5881,-0.5867,-0.5881,-0.5881,-0.5902,-0.5904,-0.5912,-0.5934,-0.5936,-0.5925,-0.5926,-0.5927,-0.5927,0,0,0,0,0,0,0,-0.5798,-0.5803,-0.5843,-0.584,-0.5842,-0.5846,-0.585,-0.5865,-0.5884,-0.5868,-0.5869,-0.5873,-0.5902,-0.591,-0.5913,-0.5936,-0.5925,-0.5927,-0.5928,-0.5928,-0.5972,-0.5972,0,0,0,0,0,0,-0.5794,-0.5801,-0.5842,-0.5844,-0.5821,-0.5847,-0.5851,-0.586,-0.5884,-0.5888,-0.5873,-0.5874,-0.5907,-0.5911,-0.5914,-0.593,-0.5927,-0.5928,-0.5929,-0.5972,-0.5972,-0.5972,0,0,0,0,0,0,-0.5793,-0.5798,-0.5841,-0.5823,-0.5829,-0.5848,-0.5858,-0.5861,-0.5869,-0.5888,-0.5892,-0.5877,-0.5907,-0.5912,-0.5928,-0.5932,-0.5929,-0.5931,-0.5971,-0.5972,-0.5972,-0.5963,0,0,0,0,0,0,-0.5791,-0.5797,-0.5802,-0.5823,-0.583,-0.5854,-0.5858,-0.5862,-0.5871,-0.5872,-0.5893,-0.5896,-0.5908,-0.5926,-0.593,-0.5934,-0.5932,-0.5971,-0.5971,-0.5972,-0.5963,-0.5962,-0.5962,0,0,0,0,0,-0.5789,-0.5797,-0.5802,-0.5807,-0.5836,-0.5854,-0.5858,-0.5871,-0.5872,-0.5877,-0.5889,-0.5896,-0.5931,-0.5927,-0.5932,-0.5936,-0.5971,-0.5971,-0.5972,-0.5963,-0.5963,-0.5962,0,0,0,0,0,0,-0.5775,-0.58,-0.5806,-0.5821,-0.5835,-0.5857,-0.5863,-0.587,-0.5884,-0.5885,-0.59,-0.5905,-0.592,-0.593,-0.5925,-0.595,-0.5951,-0.5953,-0.5943,-0.5943,-0.5943,-0.594,-0.5933,0,0,0,0,0,-0.5774,-0.5787,-0.5808,-0.5819,-0.5827,-0.5844,-0.5852,-0.5861,-0.5876,-0.5882,-0.5896,-0.5911,-0.5926,-0.5935,-0.5949,-0.5964,-0.5969,-0.597,-0.597,-0.597,-0.5971,-0.598,-0.5981,-0.5974,-0.5974,-0.5974,0,0,-0.5772,-0.5787,-0.5794,-0.5817,-0.5829,-0.5843,-0.5849,-0.5862,-0.5872,-0.5885,-0.5901,-0.5912,-0.593,-0.5946,-0.5953,-0.5954,-0.5974,-0.597,-0.597,-0.5971,-0.5981,-0.5982,-0.5982,-0.5974,-0.5974,-0.5974,0,0,-0.5774,-0.5787,-0.5798,-0.581,-0.5829,-0.5841,-0.5843,-0.5864,-0.5872,-0.5889,-0.5899,-0.5911,-0.5935,-0.5948,-0.5957,-0.5966,-0.5972,-0.597,-0.5969,-0.5979,-0.5979,-0.598,-0.5983,-0.5984,-0.5971,-0.5971,-0.5971,0,-0.5768,-0.5788,-0.5803,-0.5816,-0.5826,-0.5839,-0.5851,-0.5862,-0.5884,-0.5891,-0.5892,-0.5924,-0.5937,-0.5956,-0.5958,-0.5966,-0.597,-0.5967,-0.5978,-0.5979,-0.598,-0.5983,-0.5984,-0.5971,-0.5971,-0.5971,-0.5971,0,-0.5781,-0.5795,-0.5802,-0.5824,-0.5835,-0.5847,-0.5864,-0.5873,-0.5881,-0.5893,-0.591,-0.5926,-0.5945,-0.595,-0.5958,-0.5971,-0.5971,-0.5975,-0.5977,-0.598,-0.5983,-0.5985,-0.597,-0.597,-0.597,-0.597,0,0,-0.5774,-0.5805,-0.5807,-0.5818,-0.584,-0.5851,-0.5865,-0.5883,-0.5891,-0.5906,-0.5918,-0.5939,-0.5943,-0.5954,-0.5964,-0.5972,-0.5978,-0.5975,-0.5976,-0.5975,-0.5995,-0.5991,-0.5993,-0.5983,-0.5984,-0.5984,-0.5993,0,-0.578,-0.5804,-0.5818,-0.5837,-0.585,-0.5863,-0.5875,-0.589,-0.5902,-0.5915,-0.5928,-0.5943,-0.5947,-0.5953,-0.5962,-0.5976,-0.5982,-0.5975,-0.5995,-0.5995,-0.5989,-0.5994,-0.5991,-0.5999,-0.5995,-0.5995,-0.5995,0,-0.5789,-0.5805,-0.5825,-0.5847,-0.5853,-0.5863,-0.5882,-0.5894,-0.5912,-0.592,-0.5933,-0.5942,-0.5958,-0.5959,-0.598,-0.5975,-0.5984,-0.5992,-0.5993,-0.5995,-0.5995,-0.5997,-0.6002,-0.6003,-0.5997,-0.5997,-0.5997,0,-0.5783,-0.5809,-0.5825,-0.5833,-0.5859,-0.5866,-0.5877,-0.5895,-0.5905,-0.5921,-0.5928,-0.5946,-0.5956,-0.5969,-0.5984,-0.5983,-0.6004,-0.6006,-0.6011,-0.6011,-0.6015,-0.6014,-0.6021,-0.6021,-0.6021,-0.6021,-0.6021,0,-0.5787,-0.5799,-0.5822,-0.5832,-0.5846,-0.5862,-0.5876,-0.5888,-0.5904,-0.5916,-0.5929,-0.594,-0.5959,-0.5973,-0.5985,-0.6001,-0.6005,-0.6012,-0.6015,-0.6011,-0.601,-0.6017,-0.6017,-0.6021,-0.6021,-0.6021,-0.6021,0,-0.5782,-0.5798,-0.5816,-0.5839,-0.5845,-0.5855,-0.5875,-0.5885,-0.5898,-0.5913,-0.5918,-0.5938,-0.5955,-0.5971,-0.5994,-0.6002,-0.6019,-0.6022,-0.6013,-0.6014,-0.6019,-0.6018,-0.603,-0.6033,-0.603,-0.603,-0.603,0,-0.5783,-0.5793,-0.5818,-0.5827,-0.5838,-0.5853,-0.5864,-0.5881,-0.5891,-0.5913,-0.5921,-0.5939,-0.5955,-0.5982,-0.5998,-0.6016,-0.6021,-0.6024,-0.6023,-0.6019,-0.6021,-0.602,-0.6021,-0.6023,-0.6023,-0.6023,-0.6023,0,-0.5785,-0.5793,-0.5808,-0.5826,-0.5839,-0.5854,-0.587,-0.5877,-0.5897,-0.5909,-0.5927,-0.5939,-0.5963,-0.5981,-0.6001,-0.6013,-0.6021,-0.6023,-0.6026,-0.6021,-0.6015,-0.6019,-0.6012,-0.6023,-0.6023,-0.6023,-0.6023,-0.6023,-0.5783,-0.5793,-0.5812,-0.5829,-0.5842,-0.5857,-0.5868,-0.5882,-0.5898,-0.5919,-0.5928,-0.5946,-0.5965,-0.5993,-0.6005,-0.6019,-0.6021,-0.6024,-0.6025,-0.6026,-0.6025,-0.6013,-0.6023,-0.6023,-0.6023,-0.6023,-0.6023,0,-0.5785,-0.5799,-0.5814,-0.5836,-0.5849,-0.5857,-0.5875,-0.5886,-0.5902,-0.5919,-0.5934,-0.5955,-0.5973,-0.5992,-0.6011,-0.6019,-0.6024,-0.6024,-0.6023,-0.6026,-0.6022,-0.6018,-0.602,-0.602,-0.602,-0.602,-0.602,-0.602,-0.5788,-0.5805,-0.5815,-0.5839,-0.5852,-0.587,-0.588,-0.5894,-0.5908,-0.5931,-0.5946,-0.5958,-0.5976,-0.5997,-0.6014,-0.6019,-0.6025,-0.6024,-0.603,-0.6026,-0.6026,-0.6026,-0.6023,-0.6025,-0.6025,-0.6033,-0.6033,-0.6033]}]]